Regional Weather Roundup
Issued by NWS

Home | Current Version | Previous Version | Graphics & Text | Print | Product List | Glossary On
Versions: 1 2 3 4 5 6 7 8 9 10 11 12 13 14 15 16 17 18 19 20 21 22 23 24 25 26 27 28 29 30 31 32 33 34 35 36 37 38 39 40 41 42 43 44 45 46 47 48 49 50
000
ASUS43 KDMX 250506
RWRIA

WEATHER ROUNDUP FOR IOWA
NATIONAL WEATHER SERVICE DES MOINES IA
1200 AM CDT TUE JUL 25 2017

NOTE: "FAIR" INDICATES FEW OR NO CLOUDS BELOW 12,000 FEET WITH NO
SIGNIFICANT WEATHER AND/OR OBSTRUCTIONS TO VISIBILITY.

* - THESE STATIONS ARE NOT NWS STATIONS...THUS NOT UNDER NWS
QUALITY CONTROL.  THEY ALSO DO NOT REPORT WEATHER SUCH
AS PRECIPITATION OR FOG.

IAZ001>003-012>014-020>022-031>034-043>046-250600-
   NORTHWEST IOWA

CITY           SKY/WX    TMP DP  RH WIND       PRES   REMARKS
CARROLL *      CLEAR     68  66  94 SE7       30.02S
CHEROKEE *     MOCLDY    70  65  83 SE8       29.99S
DENISON *      CLEAR     70  64  83 VRB5      30.02S
ORANGE CITY *  PTCLDY    72  66  83 SE9       29.96S
SHELDON *      PTCLDY    72  64  78 SE13G23   29.95F
SIOUX CITY     PTCLDY    74  67  78 SE12      29.95S
SPENCER        CLOUDY    69  64  84 SE13      30.00S
STORM LAKE *   CLEAR     68  64  88 SE12      30.02S
$$

IAZ055>058-069>071-079>083-090>094-250600-
   SOUTHWEST IOWA

CITY           SKY/WX    TMP DP  RH WIND       PRES   REMARKS
ATLANTIC *     CLEAR     73  64  73 SE5       30.02S
AUDUBON *      CLEAR     68  63  83 CALM      30.04S
CLARINDA *       N/A     70  66  88 CALM      30.05S
COUNCIL BLFS * CLEAR     72  70  94 SE9       30.00S
CRESTON *      CLEAR     68  64  88 S5        30.06S
HARLAN  *      PTCLDY    70  66  88 S6        30.04S
LAMONI         CLEAR     72  65  78 CALM      30.06R
RED OAK *      CLEAR     72  66  83 S6        30.02S
SHENANDOAH *     N/A     73  66  78 SE8       30.01F
$$

IAZ047>049-059>061-072>074-084-250600-
   CENTRAL IOWA

CITY           SKY/WX    TMP DP  RH WIND       PRES   REMARKS
AMES           CLEAR     68  67  96 SE10      30.04S
ANKENY *       CLEAR     70  64  83 SE9G15    30.06R
BOONE *        CLEAR     68  64  88 SE10      30.04S
CHARITON *     CLEAR     70  64  83 SE8       30.06R
DES MOINES     CLEAR     72  65  78 E13       30.04R
GRINNELL*      CLEAR     65  62  91 E7        30.09R
KNOXVILLE *    CLEAR     70  64  83 SE8       30.06R
MARSHALLTOWN   CLEAR     65  64  97 SE8       30.06R
NEWTON *       CLEAR     66  64  94 SE10      30.07R
PELLA *          N/A     67  64  89 SE6       30.08R
$$

IAZ004>006-015-016-023>025-035-036-250600-
   NORTH CENTRAL IOWA

CITY           SKY/WX    TMP DP  RH WIND       PRES   REMARKS
ALGONA *       CLEAR     68  64  88 SE12      30.03S
CLARION *      PTCLDY    66  66 100 SE13      30.05S
ESTHERVILLE    CLEAR     66  63  90 SE9       30.01S
FORT DODGE *   CLEAR     66  61  82 SE7       30.04S
MASON CITY     CLEAR     65  61  87 SE9       30.08R
FOREST CITY *    N/A     66  63  88 SE9       30.05S
WEBSTER CITY * CLEAR     66  63  88 SE7       30.03R
IOWA FALLS *     N/A     66  64  93 E6        30.08R
$$

IAZ007>011-017>019-026>030-037>042-050>054-066-250600-
   NORTHEAST IOWA

CITY           SKY/WX    TMP DP  RH WIND       PRES   REMARKS
CEDAR RAPIDS   CLEAR     62  62 100 E6        30.08R
CHARLES CITY * CLEAR     64  63  94 SE7       30.09R
DECORAH *      PTCLDY    63  59  88 SE6       30.10R
DUBUQUE        CLEAR     63  59  87 E5        30.11R
MONTICELLO *   CLEAR     61  61 100 CALM      30.09R
OELWEIN *        N/A    N/A N/A N/A MISG        N/A
WATERLOO       CLEAR     65  61  87 SE7       30.07R
$$

IAZ064-065-067-068-078-250600-
   EAST CENTRAL IOWA

CITY           SKY/WX    TMP DP  RH WIND       PRES   REMARKS
DAVENPORT      CLEAR     63  60  90 E3        30.12R
IOWA CITY      CLEAR     67  62  84 E5        30.09R
MT. PLEASANT * CLEAR     64  64  99 E3        30.09R
MUSCATINE *    CLEAR     66  63  88 E5        30.08S
QUAD CITIES    CLEAR     63  60  90 SE5       30.09R
$$

IAZ062-063-075>077-085>089-095>099-250600-
   SOUTHEAST IOWA

CITY           SKY/WX    TMP DP  RH WIND       PRES   REMARKS
BURLINGTON     CLEAR     69  64  84 E6        30.09R
FAIRFIELD *    CLEAR     66  63  88 SE5       30.08R
FORT MADISON * CLEAR     66  64  94 E3        30.09R
KEOKUK *       CLEAR     68  64  88 E8        30.07R
OSKALOOSA *      N/A     66  64  91 E7        30.08R
CENTERVILLE *    N/A     66  64  94 CALM      30.10R
OTTUMWA        CLEAR     66  64  93 SE6       30.08R
WASHINGTON *   CLEAR     63  63 100 SE3       30.10R
$$

ABBREVIATIONS USED IN REMARKS
   TC - TEMPERATURES IN CELSIUS
  WCI - WIND CHILL INDEX
   HX - HEAT INDEX
  VSB - VISIBILITY
$$





USA.gov is the U.S. government's official web portal to all federal, state and local government web resources and services.